Laurens, SC

10:48 AM EDT on October 21, 2017 (GMT -0400)
Laurens

Weather History for KLUX - January, 2014

Change the Weather History Date:

Saturday, January 11, 2014

  Actual Average (KGSP) Record (KGSP)
Temperature  
Mean Temperature 54 °F -  
Max Temperature 64 °F 47 °F 79 °F (1949)
Min Temperature 44 °F 29 °F 2 °F (1982)
Degree Days  
Heating Degree Days 11    
Growing Degree Days 4 (Base 50)    
Moisture  
Dew Point 47 °F    
Average Humidity 89    
Maximum Humidity 100    
Minimum Humidity 71    
Precipitation  
Precipitation 1.19 in - - ()
Sea Level Pressure  
Sea Level Pressure 29.82 in    
Wind  
Wind Speed 6 mph (SSW)    
Max Wind Speed 26 mph    
Max Gust Speed 39 mph    
Visibility 6 miles    
Events Fog , Rain , Thunderstorm    
Averages and records for this station are not official NWS values.
T = Trace of Precipitation, MM = Missing Value Source: NWS Daily Summary

Daily Weather History Graph

Daily Weather History Graph

Search for Another Location

Airport or City:

Trip Planner

Search our weather history database for the weather conditions in past years. The results will help you decide how hot, cold, wet, or windy it might be!

Date:

Astronomy

Jan. 11, 2014 Rise Set
Actual Time 7:34 AM EST 5:36 PM EST
Civil Twilight 7:07 AM EST 6:04 PM EST
Nautical Twilight 6:36 AM EST 6:35 PM EST
Astronomical Twilight 6:06 AM EST 7:05 PM EST
Moon 2:18 PM EST (1/11) 3:40 AM EST (1/11)
Length of Visible Light 10h 56m
Length of Day
10h 01m
Waxing Gibbous, 83% of the Moon is Illuminated
Jan 11
Waxing Gibbous
Jan 15
Full
Jan 24
Last Quarter
Jan 30
New
Feb 6
First Quarter

Hourly Weather History & Observations

Time (EST) Temp. Windchill Dew Point Humidity Pressure Visibility Wind Dir Wind Speed Gust Speed Precip Events Conditions
12:15 AM 46.4 °F 44.3 °F - N/A% 30.06 in 1.8 mi NE 4.6 mph - 0.02 in Rain Heavy Rain
12:35 AM 46.4 °F 45.2 °F - N/A% 30.05 in 2.5 mi NE 3.5 mph - 0.02 in   Light Drizzle
12:55 AM 46.4 °F 43.5 °F - N/A% 30.03 in 1.8 mi NE 5.8 mph - 0.02 in   Overcast
1:15 AM 46.4 °F 44.3 °F - N/A% 30.03 in 1.5 mi East 4.6 mph - N/A   Overcast
1:35 AM 44.6 °F 43.1 °F - N/A% 30.01 in 1.0 mi East 3.5 mph - N/A   Overcast
1:55 AM 44.6 °F 42.2 °F - N/A% 30.00 in 0.8 mi East 4.6 mph - N/A   Overcast
2:15 AM 46.4 °F - - N/A% 30.00 in 0.5 mi Calm Calm - N/A Fog Fog
2:35 AM 44.6 °F - - N/A% 29.99 in 0.5 mi Calm Calm - N/A Fog Fog
2:55 AM 44.6 °F 43.1 °F - N/A% 29.98 in 0.5 mi North 3.5 mph - 0.01 in   Light Drizzle
3:15 AM 44.6 °F 43.1 °F - N/A% 29.97 in 1.0 mi NNE 3.5 mph - N/A   Light Drizzle
3:35 AM 44.6 °F - - N/A% 29.95 in 0.8 mi Calm Calm - N/A Rain Light Rain
3:55 AM 44.6 °F - - N/A% 29.95 in 0.8 mi Calm Calm - 0.01 in Rain Light Rain
4:15 AM 44.6 °F 43.1 °F - N/A% 29.94 in 0.8 mi North 3.5 mph - N/A Rain Light Rain
4:35 AM 44.6 °F 43.1 °F - N/A% 29.93 in 0.8 mi NE 3.5 mph - N/A Thunderstorm Unknown
4:55 AM 44.6 °F 43.1 °F - N/A% 29.92 in 0.5 mi NNE 3.5 mph - N/A Fog , Thunderstorm Fog
5:15 AM 44.6 °F - - N/A% 29.91 in 0.5 mi Calm Calm - N/A Fog , Thunderstorm Fog
5:35 AM 44.6 °F - - N/A% 29.91 in 0.2 mi Calm Calm - N/A Fog , Thunderstorm Fog
5:55 AM 44.6 °F 39.7 °F - N/A% 29.94 in 1.2 mi NW 9.2 mph 17.3 mph N/A Thunderstorm Overcast
6:15 AM 46.4 °F - - N/A% 29.92 in 2.0 mi Calm Calm - 0.01 in Thunderstorm Drizzle
6:35 AM 46.4 °F - - N/A% 29.90 in 1.0 mi Calm Calm - 0.13 in Rain , Thunderstorm Light Thunderstorms and Rain
6:55 AM 46.4 °F 45.2 °F - N/A% 29.88 in 3.0 mi ESE 3.5 mph - 0.18 in Rain , Thunderstorm Heavy Thunderstorms and Rain
7:15 AM 46.4 °F - - N/A% 29.88 in 4.0 mi Calm Calm - N/A   Light Drizzle
7:35 AM 46.4 °F - - N/A% 29.86 in 4.0 mi Calm Calm - N/A   Haze
7:55 AM 48.2 °F - - N/A% 29.86 in 1.0 mi South 4.6 mph - N/A Rain Light Rain
8:15 AM 51.8 °F - - N/A% 29.83 in 0.5 mi South 10.4 mph - 0.02 in Rain Light Rain
8:35 AM 55.4 °F - - N/A% 29.82 in 0.8 mi South 12.7 mph - 0.02 in   Overcast
8:55 AM 55.4 °F - - N/A% 29.80 in 2.0 mi South 11.5 mph 17.3 mph 0.02 in   Overcast
9:15 AM 59.0 °F - - N/A% 29.79 in 10.0 mi South 10.4 mph - N/A   Mostly Cloudy
9:35 AM 62.6 °F - - N/A% 29.78 in 10.0 mi South 17.3 mph 27.6 mph N/A   Overcast
9:55 AM 64.4 °F - - N/A% 29.77 in 10.0 mi South 23.0 mph 35.7 mph N/A   Overcast
10:15 AM 64.4 °F - - N/A% 29.78 in 10.0 mi SSW 26.5 mph 39.1 mph N/A   Overcast
10:35 AM 62.6 °F - - N/A% 29.85 in 10.0 mi West 20.7 mph 33.4 mph 0.03 in Rain , Thunderstorm Heavy Thunderstorms and Rain
10:55 AM 59.0 °F - - N/A% 29.82 in 3.0 mi SW 13.8 mph 23.0 mph 0.25 in Rain Heavy Rain
11:15 AM 59.0 °F - - N/A% 29.81 in 3.0 mi SW 10.4 mph 18.4 mph 0.13 in Rain Heavy Rain
11:35 AM 59.0 °F - - N/A% 29.83 in 3.0 mi SSW 10.4 mph - 0.24 in Rain , Thunderstorm Heavy Thunderstorms and Rain
11:55 AM 59.0 °F - - N/A% 29.81 in 4.0 mi SSW 10.4 mph - 0.31 in Rain Rain
12:15 PM 59.0 °F - - N/A% 29.79 in 5.0 mi SSW 5.8 mph - 0.04 in Rain Rain
12:35 PM 59.0 °F - - N/A% 29.77 in 7.0 mi SSW 8.1 mph - 0.08 in Rain Heavy Rain
12:55 PM 59.0 °F - - N/A% 29.77 in 5.0 mi SSW 8.1 mph - 0.16 in Rain Rain
1:15 PM 59.0 °F - - N/A% 29.78 in 5.0 mi SW 9.2 mph - 0.05 in Rain Heavy Rain
1:35 PM 59.0 °F - - N/A% 29.77 in 7.0 mi SW 5.8 mph - 0.10 in Rain Rain
1:55 PM 57.2 °F - - N/A% 29.73 in 5.0 mi South 5.8 mph - 0.16 in Rain Heavy Rain
2:15 PM 57.2 °F - - N/A% 29.73 in 7.0 mi SSW 9.2 mph - 0.05 in Rain Light Rain
2:35 PM 57.2 °F - - N/A% 29.68 in 10.0 mi South 8.1 mph - 0.05 in   Light Drizzle
2:55 PM 59.0 °F - - N/A% 29.71 in 10.0 mi SSW 9.2 mph - 0.05 in   Mostly Cloudy
3:15 PM 59.0 °F - - N/A% 29.70 in 10.0 mi SW 6.9 mph - N/A   Mostly Cloudy
3:35 PM 59.0 °F - - N/A% 29.68 in 10.0 mi SW 4.6 mph - N/A   Mostly Cloudy
3:55 PM 59.0 °F - - N/A% 29.70 in 10.0 mi SW 10.4 mph - N/A   Overcast
4:15 PM 59.0 °F - - N/A% 29.70 in 10.0 mi SW 9.2 mph 19.6 mph N/A   Overcast
4:35 PM 59.0 °F - - N/A% 29.68 in 10.0 mi SW 10.4 mph - N/A   Mostly Cloudy
4:55 PM 59.0 °F - - N/A% 29.67 in 10.0 mi SSW 8.1 mph - N/A   Scattered Clouds
5:15 PM 59.0 °F - - N/A% 29.68 in 10.0 mi SSW 9.2 mph - N/A   Mostly Cloudy
5:35 PM 59.0 °F - - N/A% 29.68 in 10.0 mi SW 10.4 mph - N/A   Mostly Cloudy
5:55 PM 57.2 °F - - N/A% 29.68 in 10.0 mi SW 6.9 mph - N/A   Mostly Cloudy
6:15 PM 57.2 °F - - N/A% 29.69 in 10.0 mi SSW 8.1 mph - N/A   Scattered Clouds
6:35 PM 55.4 °F - - N/A% 29.71 in 10.0 mi SW 9.2 mph - N/A   Scattered Clouds
6:55 PM 55.4 °F - - N/A% 29.71 in 10.0 mi SW 6.9 mph - N/A   Scattered Clouds
7:15 PM 55.4 °F - - N/A% 29.71 in 10.0 mi SSW 10.4 mph - N/A   Scattered Clouds
7:35 PM 55.4 °F - - N/A% 29.72 in 10.0 mi SW 9.2 mph - N/A   Clear
7:55 PM 55.4 °F - - N/A% 29.73 in 10.0 mi SW 10.4 mph - N/A   Scattered Clouds
8:15 PM 55.4 °F - - N/A% 29.76 in 10.0 mi WSW 12.7 mph 19.6 mph 0.01 in Rain Rain
8:35 PM 53.6 °F - 50.0 °F 88% 29.74 in 10.0 mi SW 8.1 mph 18.4 mph 0.02 in Rain , Thunderstorm Light Thunderstorms and Rain
8:55 PM 53.6 °F - 53.6 °F 100% 29.76 in 10.0 mi SSW 13.8 mph 18.4 mph 0.02 in   Overcast
9:15 PM 51.8 °F - 46.4 °F 82% 29.76 in 10.0 mi SW 10.4 mph - N/A   Scattered Clouds
9:35 PM 50.0 °F - 50.0 °F 100% 29.77 in 10.0 mi SW 8.1 mph - N/A   Clear
9:55 PM 50.0 °F - 50.0 °F 100% 29.78 in 10.0 mi WSW 8.1 mph - N/A   Clear
10:15 PM 48.2 °F - 48.2 °F 100% 29.79 in 10.0 mi WSW 5.8 mph - N/A   Clear
10:35 PM 48.2 °F - 48.2 °F 100% 29.80 in 10.0 mi WSW 6.9 mph - N/A   Clear
10:55 PM 46.4 °F 42.9 °F - N/A% 29.81 in 10.0 mi WSW 6.9 mph - N/A   Clear
11:15 PM 50.0 °F - 42.8 °F 76% 29.81 in 10.0 mi WSW 4.6 mph - N/A   Clear
11:35 PM 48.2 °F - 41.0 °F 76% 29.83 in 10.0 mi West 6.9 mph - N/A   Clear
11:55 PM 48.2 °F - 39.2 °F 71% 29.83 in 10.0 mi West 8.1 mph - N/A   Clear